Year,Month,Day,Hour,Minute,Value (Times are PST for temperature in C)
2016,08,21,08,59,18.70
2016,08,21,09,00,18.70
2016,08,21,09,01,18.70
2016,08,21,09,02,18.80
2016,08,21,09,03,18.90
2016,08,21,09,04,18.90
2016,08,21,09,05,18.90
2016,08,21,09,06,18.90
2016,08,21,09,07,18.90
2016,08,21,09,08,18.90
2016,08,21,09,09,19.00
2016,08,21,09,10,19.10
2016,08,21,09,11,19.10
2016,08,21,09,12,19.00
2016,08,21,09,13,19.00
2016,08,21,09,14,18.90
2016,08,21,09,15,18.90
2016,08,21,09,16,18.90
2016,08,21,09,17,19.00
2016,08,21,09,18,19.00
2016,08,21,09,19,19.10
2016,08,21,09,20,19.00
2016,08,21,09,21,19.00
2016,08,21,09,22,18.90
2016,08,21,09,23,18.80
2016,08,21,09,24,18.80
2016,08,21,09,25,18.80
2016,08,21,09,26,18.90
2016,08,21,09,27,18.90
2016,08,21,09,28,19.00
2016,08,21,09,29,19.10
2016,08,21,09,30,19.10
2016,08,21,09,31,19.10
2016,08,21,09,32,19.10
2016,08,21,09,33,19.10
2016,08,21,09,34,19.10
2016,08,21,09,35,19.10
2016,08,21,09,36,19.10
2016,08,21,09,37,19.10
2016,08,21,09,38,19.20
2016,08,21,09,39,19.10
2016,08,21,09,40,19.00
2016,08,21,09,41,19.00
2016,08,21,09,42,18.90
2016,08,21,09,43,18.90
2016,08,21,09,44,18.90
2016,08,21,09,45,18.80
2016,08,21,09,46,18.80
2016,08,21,09,47,18.80
2016,08,21,09,48,18.80
2016,08,21,09,49,18.80
2016,08,21,09,50,18.70
2016,08,21,09,51,18.70
2016,08,21,09,52,18.80
2016,08,21,09,53,18.80
2016,08,21,09,54,18.90
2016,08,21,09,55,18.90
2016,08,21,09,56,18.90
2016,08,21,09,57,18.80
2016,08,21,09,58,18.70
2016,08,21,09,59,18.60
2016,08,21,10,00,18.50
2016,08,21,10,01,18.40
2016,08,21,10,02,18.50
2016,08,21,10,03,18.50
2016,08,21,10,04,18.50
2016,08,21,10,05,18.50
2016,08,21,10,06,18.60
2016,08,21,10,07,18.70
2016,08,21,10,08,18.90
2016,08,21,10,09,18.90
2016,08,21,10,10,19.00
2016,08,21,10,11,19.00
2016,08,21,10,12,19.10
2016,08,21,10,13,19.10
2016,08,21,10,14,19.20
2016,08,21,10,15,19.30
2016,08,21,10,16,19.40
2016,08,21,10,17,19.30
2016,08,21,10,18,19.30
2016,08,21,10,19,19.20
2016,08,21,10,20,19.20
2016,08,21,10,21,19.20
2016,08,21,10,22,19.20
2016,08,21,10,23,19.10
2016,08,21,10,24,19.10
2016,08,21,10,25,19.10
2016,08,21,10,26,19.10
2016,08,21,10,27,19.10
2016,08,21,10,28,19.10
2016,08,21,10,29,19.20
2016,08,21,10,30,19.20
2016,08,21,10,31,19.20
2016,08,21,10,32,19.20
2016,08,21,10,33,19.20
2016,08,21,10,34,19.30
2016,08,21,10,35,19.30
2016,08,21,10,36,19.30
2016,08,21,10,37,19.40
2016,08,21,10,38,19.40
2016,08,21,10,39,19.30
2016,08,21,10,40,19.30
2016,08,21,10,41,19.30
2016,08,21,10,42,19.30
2016,08,21,10,43,19.30
2016,08,21,10,44,19.40
2016,08,21,10,45,19.60
2016,08,21,10,46,19.70
2016,08,21,10,47,19.80
2016,08,21,10,48,20.00
2016,08,21,10,49,20.10
2016,08,21,10,50,20.00
2016,08,21,10,51,20.00
2016,08,21,10,52,19.90
2016,08,21,10,53,19.80
2016,08,21,10,54,19.70
2016,08,21,10,55,19.70
2016,08,21,10,56,19.70
2016,08,21,10,57,19.80
2016,08,21,10,58,19.70
2016,08,21,10,59,19.70
2016,08,21,11,00,19.60
2016,08,21,11,01,19.60
2016,08,21,11,02,19.60
2016,08,21,11,03,19.60
2016,08,21,11,04,19.60
2016,08,21,11,05,19.50
2016,08,21,11,06,19.50
2016,08,21,11,07,19.50
2016,08,21,11,08,19.50
2016,08,21,11,09,19.50
2016,08,21,11,10,19.60
2016,08,21,11,11,19.70
2016,08,21,11,12,19.70
2016,08,21,11,13,19.70
2016,08,21,11,14,19.70
2016,08,21,11,15,19.70
2016,08,21,11,16,19.60
2016,08,21,11,17,19.50
2016,08,21,11,18,19.50
2016,08,21,11,19,19.40
2016,08,21,11,20,19.40
2016,08,21,11,21,19.40
2016,08,21,11,22,19.30
2016,08,21,11,23,19.30
2016,08,21,11,24,19.40
2016,08,21,11,25,19.40
2016,08,21,11,26,19.40
2016,08,21,11,27,19.50
2016,08,21,11,28,19.50
2016,08,21,11,29,19.60
2016,08,21,11,30,19.60
2016,08,21,11,31,19.70
2016,08,21,11,32,19.80
2016,08,21,11,33,19.80
2016,08,21,11,34,19.80
2016,08,21,11,35,19.90
2016,08,21,11,36,19.90
2016,08,21,11,37,20.00
2016,08,21,11,38,19.90
2016,08,21,11,39,19.90
2016,08,21,11,40,19.90
2016,08,21,11,41,19.90
2016,08,21,11,42,19.80
2016,08,21,11,43,19.80
2016,08,21,11,44,19.80
2016,08,21,11,45,19.80
2016,08,21,11,46,19.90
2016,08,21,11,47,20.00
2016,08,21,11,48,20.10
2016,08,21,11,49,20.10
2016,08,21,11,50,20.20
2016,08,21,11,51,20.30
2016,08,21,11,52,20.30
2016,08,21,11,53,20.40
2016,08,21,11,54,20.40
2016,08,21,11,55,20.50
2016,08,21,11,56,20.60
2016,08,21,11,57,20.60
2016,08,21,11,58,20.60
2016,08,21,11,59,20.60
2016,08,21,12,00,20.70
2016,08,21,12,01,20.70
2016,08,21,12,02,20.60
2016,08,21,12,03,20.60
2016,08,21,12,04,20.60
2016,08,21,12,05,20.50
2016,08,21,12,06,20.40
2016,08,21,12,07,20.30
2016,08,21,12,08,20.20
2016,08,21,12,09,20.10
2016,08,21,12,10,20.10
2016,08,21,12,11,20.00
2016,08,21,12,12,20.10
2016,08,21,12,13,20.10
2016,08,21,12,14,20.20
2016,08,21,12,15,20.20
2016,08,21,12,16,20.30
2016,08,21,12,17,20.30
2016,08,21,12,18,20.20
2016,08,21,12,19,20.20
2016,08,21,12,20,20.10
2016,08,21,12,21,20.00
2016,08,21,12,22,20.00
2016,08,21,12,23,19.90
2016,08,21,12,24,19.90
2016,08,21,12,25,19.80
2016,08,21,12,26,19.80
2016,08,21,12,27,19.80
2016,08,21,12,28,19.70
2016,08,21,12,29,19.70
2016,08,21,12,30,19.70
2016,08,21,12,31,19.70
2016,08,21,12,32,19.80
2016,08,21,12,33,19.80
2016,08,21,12,34,19.80
2016,08,21,12,35,19.80
2016,08,21,12,36,19.70
2016,08,21,12,37,19.70
2016,08,21,12,38,19.70
2016,08,21,12,39,19.70
2016,08,21,12,40,19.70
2016,08,21,12,41,19.80
2016,08,21,12,42,19.80
2016,08,21,12,43,19.80
2016,08,21,12,44,19.90
2016,08,21,12,45,20.00
2016,08,21,12,46,20.10
2016,08,21,12,47,20.20
2016,08,21,12,48,20.40
2016,08,21,12,49,20.50
2016,08,21,12,50,20.50
2016,08,21,12,51,20.60
2016,08,21,12,52,20.50
2016,08,21,12,53,20.50
2016,08,21,12,54,20.50
2016,08,21,12,55,20.50
2016,08,21,12,56,20.60
2016,08,21,12,57,20.70
2016,08,21,12,58,20.70
2016,08,21,12,59,20.70
2016,08,21,13,00,20.80
2016,08,21,13,01,20.80
2016,08,21,13,02,20.90
2016,08,21,13,03,21.00
2016,08,21,13,04,21.10
2016,08,21,13,05,21.10
2016,08,21,13,06,21.10
2016,08,21,13,07,21.10
2016,08,21,13,08,21.20
2016,08,21,13,09,21.30
2016,08,21,13,10,21.40
2016,08,21,13,11,21.40
2016,08,21,13,12,21.50
2016,08,21,13,13,21.60
2016,08,21,13,14,21.60
2016,08,21,13,15,21.60
2016,08,21,13,16,21.60
2016,08,21,13,17,21.70
2016,08,21,13,18,21.60
2016,08,21,13,19,21.60
2016,08,21,13,20,21.60
2016,08,21,13,21,21.50
2016,08,21,13,22,21.30
2016,08,21,13,23,21.30
2016,08,21,13,24,21.30
2016,08,21,13,25,21.30
2016,08,21,13,26,21.30
2016,08,21,13,27,21.30
2016,08,21,13,28,21.30
2016,08,21,13,29,21.40
2016,08,21,13,30,21.30
2016,08,21,13,31,21.20
2016,08,21,13,32,21.20
2016,08,21,13,33,21.20
2016,08,21,13,34,21.10
2016,08,21,13,35,21.00
2016,08,21,13,36,20.80
2016,08,21,13,37,20.80
2016,08,21,13,38,20.80
2016,08,21,13,39,20.80
2016,08,21,13,40,20.90
2016,08,21,13,41,21.00
2016,08,21,13,42,21.20
2016,08,21,13,43,21.30
2016,08,21,13,44,21.30
2016,08,21,13,45,21.30
2016,08,21,13,46,21.30
2016,08,21,13,47,21.20
2016,08,21,13,48,21.20
2016,08,21,13,49,21.20
2016,08,21,13,50,21.10
2016,08,21,13,51,21.20
2016,08,21,13,52,21.20
2016,08,21,13,53,21.30
2016,08,21,13,54,21.30
2016,08,21,13,55,21.30
2016,08,21,13,56,21.40
2016,08,21,13,57,21.50
2016,08,21,13,58,21.50
2016,08,21,13,59,21.40
2016,08,21,14,00,21.40
2016,08,21,14,01,21.30
2016,08,21,14,02,21.30
2016,08,21,14,03,21.30
2016,08,21,14,04,21.30
2016,08,21,14,05,21.40
2016,08,21,14,06,21.40
2016,08,21,14,07,21.30
2016,08,21,14,08,21.30
2016,08,21,14,09,21.20
2016,08,21,14,10,21.00
2016,08,21,14,11,20.90
2016,08,21,14,12,20.80
2016,08,21,14,13,20.80
2016,08,21,14,14,20.80
2016,08,21,14,15,20.70
2016,08,21,14,16,20.80
2016,08,21,14,17,20.90
2016,08,21,14,18,21.00
2016,08,21,14,19,21.00
2016,08,21,14,20,21.00
2016,08,21,14,21,20.80
2016,08,21,14,22,20.70
2016,08,21,14,23,20.70
2016,08,21,14,24,20.70
2016,08,21,14,25,20.70
2016,08,21,14,26,20.70
2016,08,21,14,27,20.80
2016,08,21,14,28,21.00
2016,08,21,14,29,21.10
2016,08,21,14,30,21.10
2016,08,21,14,31,21.20
2016,08,21,14,32,21.30
2016,08,21,14,33,21.40
2016,08,21,14,34,21.30
2016,08,21,14,35,21.30
2016,08,21,14,36,21.20
2016,08,21,14,37,21.20
2016,08,21,14,38,21.20
2016,08,21,14,39,21.30
2016,08,21,14,40,21.40
2016,08,21,14,41,21.40
2016,08,21,14,42,21.40
2016,08,21,14,43,21.40
2016,08,21,14,44,21.40
2016,08,21,14,45,21.40
2016,08,21,14,46,21.30
2016,08,21,14,47,21.30
2016,08,21,14,48,21.30
2016,08,21,14,49,21.20
2016,08,21,14,50,21.10
2016,08,21,14,51,21.10
2016,08,21,14,52,21.20
2016,08,21,14,53,21.10
2016,08,21,14,54,21.10
2016,08,21,14,55,21.20
2016,08,21,14,56,21.30
2016,08,21,14,57,21.30
2016,08,21,14,58,21.40
2016,08,21,14,59,21.50
2016,08,21,15,00,21.60
2016,08,21,15,01,21.70
2016,08,21,15,02,21.70
2016,08,21,15,03,21.70
2016,08,21,15,04,21.80
2016,08,21,15,05,21.80
2016,08,21,15,06,21.80
2016,08,21,15,07,21.80
2016,08,21,15,08,21.80
2016,08,21,15,09,21.70
2016,08,21,15,10,21.60
2016,08,21,15,11,21.50
2016,08,21,15,12,21.40
2016,08,21,15,13,21.40
2016,08,21,15,14,21.40
2016,08,21,15,15,21.30
2016,08,21,15,16,21.30
2016,08,21,15,17,21.20
2016,08,21,15,18,21.20
2016,08,21,15,19,21.20
2016,08,21,15,20,21.20
2016,08,21,15,21,21.20
2016,08,21,15,22,21.20
2016,08,21,15,23,21.20
2016,08,21,15,24,21.10
2016,08,21,15,25,21.00
2016,08,21,15,26,21.00
2016,08,21,15,27,20.90
2016,08,21,15,28,20.90
2016,08,21,15,29,20.90
2016,08,21,15,30,20.90
2016,08,21,15,31,20.90
2016,08,21,15,32,20.90
2016,08,21,15,33,20.90
2016,08,21,15,34,20.90
2016,08,21,15,35,21.00
2016,08,21,15,36,21.10
2016,08,21,15,37,21.20
2016,08,21,15,38,21.30
2016,08,21,15,39,21.40
2016,08,21,15,40,21.40
2016,08,21,15,41,21.30
2016,08,21,15,42,21.30
2016,08,21,15,43,21.20
2016,08,21,15,44,21.20
2016,08,21,15,45,21.20
2016,08,21,15,46,21.20
2016,08,21,15,47,21.20
2016,08,21,15,48,21.20
2016,08,21,15,49,21.20
2016,08,21,15,50,21.20
2016,08,21,15,51,21.20
2016,08,21,15,52,21.20
2016,08,21,15,53,21.10
2016,08,21,15,54,21.00
2016,08,21,15,55,21.00
2016,08,21,15,56,20.90
2016,08,21,15,57,20.80
2016,08,21,15,58,20.70
2016,08,21,15,59,20.70
2016,08,21,16,00,20.70
2016,08,21,16,01,20.70
2016,08,21,16,02,20.80
2016,08,21,16,03,20.80
2016,08,21,16,04,20.90
2016,08,21,16,05,21.00
2016,08,21,16,06,21.10
2016,08,21,16,07,21.20
2016,08,21,16,08,21.30
2016,08,21,16,09,21.30
2016,08,21,16,10,21.50
2016,08,21,16,11,21.60
2016,08,21,16,12,21.70
2016,08,21,16,13,21.70
2016,08,21,16,14,21.80
2016,08,21,16,15,21.80
2016,08,21,16,16,21.70
2016,08,21,16,17,21.70
2016,08,21,16,18,21.60
2016,08,21,16,19,21.60
2016,08,21,16,20,21.50
2016,08,21,16,21,21.50
2016,08,21,16,22,21.50
2016,08,21,16,23,21.50
2016,08,21,16,24,21.60
2016,08,21,16,25,21.50
2016,08,21,16,26,21.50
2016,08,21,16,27,21.50
2016,08,21,16,28,21.40
2016,08,21,16,29,21.30
2016,08,21,16,30,21.30
2016,08,21,16,31,21.20
2016,08,21,16,32,21.20
2016,08,21,16,33,21.10
2016,08,21,16,34,21.10
2016,08,21,16,35,21.10
2016,08,21,16,36,21.20
2016,08,21,16,37,21.10
2016,08,21,16,38,21.10
2016,08,21,16,39,21.10
2016,08,21,16,40,21.20
2016,08,21,16,41,21.10
2016,08,21,16,42,21.10
2016,08,21,16,43,21.00
2016,08,21,16,44,21.00
2016,08,21,16,45,20.90
2016,08,21,16,46,20.80
2016,08,21,16,47,20.80
2016,08,21,16,48,20.80
2016,08,21,16,49,20.70
2016,08,21,16,50,20.70
2016,08,21,16,51,20.70
2016,08,21,16,52,20.70
2016,08,21,16,53,20.70
2016,08,21,16,54,20.70
2016,08,21,16,55,20.70
2016,08,21,16,56,20.80
2016,08,21,16,57,20.80
2016,08,21,16,58,20.80
2016,08,21,16,59,20.80
2016,08,21,17,00,20.80
2016,08,21,17,01,20.80
2016,08,21,17,02,20.80
2016,08,21,17,03,20.80
2016,08,21,17,04,20.80
2016,08,21,17,05,20.80
2016,08,21,17,06,20.90
2016,08,21,17,07,20.90
2016,08,21,17,08,20.90
2016,08,21,17,09,20.90
2016,08,21,17,10,20.90
2016,08,21,17,11,20.80
2016,08,21,17,12,20.80
2016,08,21,17,13,20.70
2016,08,21,17,14,20.70
2016,08,21,17,15,20.60
2016,08,21,17,16,20.50
2016,08,21,17,17,20.50
2016,08,21,17,18,20.40
2016,08,21,17,19,20.30
2016,08,21,17,20,20.30
2016,08,21,17,21,20.30
2016,08,21,17,22,20.30
2016,08,21,17,23,20.20
2016,08,21,17,24,20.10
2016,08,21,17,25,20.00
2016,08,21,17,26,20.00
2016,08,21,17,27,19.90
2016,08,21,17,28,19.80
2016,08,21,17,29,19.80
2016,08,21,17,30,19.80
2016,08,21,17,31,19.80
2016,08,21,17,32,19.80
2016,08,21,17,33,19.80
2016,08,21,17,34,19.70
2016,08,21,17,35,19.70
2016,08,21,17,36,19.70
2016,08,21,17,37,19.70
2016,08,21,17,38,19.70
2016,08,21,17,39,19.70
2016,08,21,17,40,19.60
2016,08,21,17,41,19.60
2016,08,21,17,42,19.60
2016,08,21,17,43,19.60
2016,08,21,17,44,19.60
2016,08,21,17,45,19.60
2016,08,21,17,46,19.60
2016,08,21,17,47,19.60
2016,08,21,17,48,19.60
2016,08,21,17,49,19.60
2016,08,21,17,50,19.60
2016,08,21,17,51,19.60
2016,08,21,17,52,19.60
2016,08,21,17,53,19.60
2016,08,21,17,54,19.70
2016,08,21,17,55,19.80
2016,08,21,17,56,19.80
2016,08,21,17,57,19.90
2016,08,21,17,58,20.00
2016,08,21,17,59,20.00
2016,08,21,18,00,20.10
2016,08,21,18,01,20.10
2016,08,21,18,02,20.00
2016,08,21,18,03,20.00
2016,08,21,18,04,20.00
2016,08,21,18,05,19.90
2016,08,21,18,06,19.90
2016,08,21,18,07,19.90
2016,08,21,18,08,19.90
2016,08,21,18,09,19.90
2016,08,21,18,10,19.90
2016,08,21,18,11,19.90
2016,08,21,18,12,19.90
2016,08,21,18,13,19.90
2016,08,21,18,14,19.90
2016,08,21,18,15,19.90
2016,08,21,18,16,19.90
2016,08,21,18,17,19.90
2016,08,21,18,18,19.90
2016,08,21,18,19,19.90
2016,08,21,18,20,19.90
2016,08,21,18,21,19.90
